P/2018 L5 ( Leonard )

Japanese version
Home page
Updated on July 2, 2018

---------------------------------------------------------------------

* Profile

Discovery Date June 14, 2018
Magnitude 18.5 mag
Discoverer G. J. Leonard (Mount Lemmon)

* Orbital Elements

Epoch 2018 May 2.0 TT = JDT 2458240.5
T 2018 May 5.06416 TT                                   MPCW
q   2.2955244            (2000.0)            P               Q
n   0.15106513     Peri.   94.20294     +0.68040038     +0.73244334
a   3.4916166      Node   218.70831     -0.68674587     +0.62576682
e   0.3425612      Incl.    2.21105     -0.25580350     +0.26822127
P   6.52
From 56 observations 2018 June 8-July 1, mean residual 0".5.

* Magnitudes Graph

        m1 = 14.0 + 5 log d + 10.0 log r

---------------------------------------------------------------------

The orbital elements are published on M.P.E.C. 2018-N04.
The magnitudes graphs are made with Comet for Windows.

---------------------------------------------------------------------

Copyright(C) Seiichi Yoshida (comet@aerith.net). All rights reserved.